Regional Weather Roundup
Issued by NWS

Home | Current Version | Previous Version | Graphics & Text | Print | Product List | Glossary On
Versions: 1 2 3 4 5 6 7 8 9 10 11 12 13 14 15 16 17 18 19 20 21 22 23 24 25 26 27 28 29 30 31 32 33 34 35 36 37 38 39 40 41 42 43 44 45 46 47 48 49 50
000
ASUS43 KOAX 242010
RWRNE

WEATHER ROUNDUP FOR NEBRASKA
NATIONAL WEATHER SERVICE OMAHA NE
300 PM CDT SUN MAY 24 2015

NOTES: SATELLITE DATA IS BEING USED TO AUGMENT CLOUD COVER ABOVE
       12000 FEET.
       "FAIR" INDICATES FEW OR NO CLOUDS BELOW 12,000 FEET WITH NO
       SIGNIFICANT WEATHER AND/OR OBSTRUCTIONS TO VISIBILITY.

  * THESE STATIONS DO NOT REPORT WEATHER SUCH AS RAIN...SNOW OR FOG.

NEZ001>004-019>022-054>056-242100-
NEBRASKA PANHANDLE

CITY           SKY/WX    TMP DP  RH WIND       PRES   REMARKS
SCOTTSBLUFF    SUNNY     66  49  54 MISG      29.82F
ALLIANCE       SUNNY     67  51  56 VRB7      29.82F
CHADRON        MOSUNNY   65  54  67 N8        29.83F
KIMBALL          N/A    N/A N/A N/A MISG        N/A
SIDNEY         MOSUNNY   63  49  60 E7        29.85F
$$

NEZ057>060-069>072-079>082-242100-
SOUTHWEST NEBRASKA

CITY           SKY/WX    TMP DP  RH WIND       PRES   REMARKS
NORTH PLATTE   MOSUNNY   68  55  63 E6        29.83F
IMPERIAL       MOSUNNY   68  51  54 VRB5      29.81F
LEXINGTON      DRIZZLE   62  58  90 CALM      29.85F
MCCOOK         CLOUDY    68  56  65 E9        29.81F
OGALLALA       MOSUNNY   67  52  58 CALM      29.83F
$$

NEZ005>010-023>029-035>040-094-242100-
NORTH CENTRAL NEBRASKA

CITY           SKY/WX    TMP DP  RH WIND       PRES   REMARKS
VALENTINE      LGT RAIN  61  58  90 E7        29.85F FOG
AINSWORTH      CLOUDY    62  60  92 NE5       29.85F
BROKEN BOW     CLOUDY    65  57  75 SE6       29.84F
O`NEILL        CLOUDY    62  60  93 E3        29.84F
ORD            CLOUDY    64  57  78 CALM      29.82F
THEDFORD       PTSUNNY   67  57  71 E5        29.85F
$$

NEZ041-046>049-061>064-073>077-083>087-242100-
SOUTH CENTRAL NEBRASKA

CITY           SKY/WX    TMP DP  RH WIND       PRES   REMARKS
GRAND ISLAND   CLOUDY    65  57  75 W8        29.83F
AURORA         CLOUDY    66  60  79 W7        29.83F
HASTINGS       CLOUDY    64  58  80 SW5       29.84F
HEBRON         CLOUDY    67  58  71 SW5       29.83F
HOLDREGE       CLOUDY    64  57  80 SW6       29.84F
KEARNEY *      CLOUDY    63  57  82 SE7       29.84F
YORK           CLOUDY    66  61  82 CALM      29.83F
$$

NEZ011>018-030>034-042>045-242100-
NORTHEAST NEBRASKA

CITY           SKY/WX    TMP DP  RH WIND       PRES   REMARKS
NORFOLK        CLOUDY    65  59  81 SW5       29.82F
ALBION         CLOUDY    64  57  77 CALM      29.82F
BLAIR          CLOUDY    66  60  80 S5        29.81F
COLUMBUS *     CLOUDY    64  55  72 W6        29.86S
FREMONT        CLOUDY    68  61  76 W6        29.82S
TEKAMAH        CLOUDY    68  62  81 S6        29.80F
WAYNE          CLOUDY    64  61  88 SE3       29.82F
$$

NEZ050>053-065>068-078-088>093-242100-
SOUTHEAST NEBRASKA

CITY           SKY/WX    TMP DP  RH WIND       PRES   REMARKS
LINCOLN        CLOUDY    70  60  70 VRB5      29.82F
OMAHA EPPLEY   CLOUDY    68  61  78 SW3       29.81S
BEATRICE       CLOUDY    68  61  77 SW7       29.83F
FALLS CITY     CLOUDY    69  63  81 S9        29.83F
NEBRASKA CITY  CLOUDY    69  63  81 SW6       29.83F
PLATTSMOUTH    CLOUDY    68  61  79 CALM      29.83S
$$

NEZ044-045-051>053-067-242100-
OMAHA AREA

CITY           SKY/WX    TMP DP  RH WIND       PRES   REMARKS
OMAHA EPPLEY   CLOUDY    68  61  78 SW3       29.81S
BLAIR          CLOUDY    66  60  80 S5        29.81F
FREMONT        CLOUDY    68  61  76 W6        29.82S
MILLARD        CLOUDY    68  61  78 SW5       29.82S
OFFUTT AFB     CLOUDY    68  63  83 S6        29.81S
PLATTSMOUTH    CLOUDY    68  61  79 CALM      29.83S
WAHOO          CLOUDY    68  61  78 SW3       29.81F
$$



USA.gov is the U.S. government's official web portal to all federal, state and local government web resources and services.